Home   Weather   Regina   Past weeks

Flag for Canada Past Weather in Regina, Saskatchewan, Canada — Yesterday and Last 2 Weeks

Now
28 °F

Mostly cloudy.


Feels Like: 22 °F
Forecast: 23 / 32 °F
Wind: 6 mph from Northwest

Location: Regina Weather Station

Current Time: Feb 22, 2017 at 9:31:46 am

Latest Report: Feb 22, 2017 at 8:00 am


Visibility: 15 mi

Pressure: 29.96 "Hg (27.85 "Hg at 577m altitude)

Humidity: 86%

Dew Point: 25 °F

Location of ReginaLocation

Past Weather in Regina — Graph

°F

Regina Temperature Yesterday

Maximum temperature yesterday: 36 °F (at 1:00 pm)
Minimum temperature yesterday: 30 °F (at 12:00 am)
Average temperature yesterday: 33 °F

High & Low Weather Summary for the Past Weeks

 TemperatureHumidityPressure
High45 °F (Feb 16, 2:00 pm)100% (Feb 11, 12:27 am)30.30 "Hg (Feb 11, 12:27 am)
Low-29 °F (Feb 8, 12:00 am)64% (Feb 12, 3:00 pm)29.26 "Hg (Feb 17, 5:00 am)
Average21 °F84%29.84 "Hg
* Reported Feb 7 8:00 am — Feb 22 8:00 am, Regina, Weather by CustomWeather, © 2017

Note: Actual official high and low records may vary slightly from our data, if they occured in-between our weather recording intervals... More about our weather records

Advertising

Regina Weather History for the Previous 24 Hours

Scroll right to see more
 ConditionsComfort  
Time TempWeatherWind HumidityBarometerVisibility
8:00 am
Wed, Feb 22
28 °FMostly cloudy.6 mph86%29.96 "Hg15 mi
7:00 am28 °FOvercast.5 mph93%29.94 "Hg15 mi
6:00 am28 °FOvercast.5 mph86%29.94 "Hg15 mi
5:00 am28 °FOvercast.5 mph86%29.93 "Hg15 mi
4:00 am28 °FOvercast.5 mph86%29.91 "Hg15 mi
3:00 am28 °FOvercast.8 mph80%29.90 "Hg15 mi
2:00 am28 °FOvercast.8 mph80%29.89 "Hg15 mi
1:00 am30 °FOvercast.12 mph75%29.89 "Hg15 mi
12:00 am30 °FOvercast.8 mph80%29.87 "Hg15 mi
11:00 pm
Tue, Feb 21
32 °FOvercast.12 mph75%29.83 "Hg15 mi
10:00 pm32 °FOvercast.9 mph75%29.83 "Hg15 mi
9:00 pm32 °FOvercast.12 mph80%29.82 "Hg15 mi
8:00 pm34 °FOvercast.7 mph75%29.82 "Hg12 mi
7:00 pm34 °FOvercast.9 mph75%29.82 "Hg12 mi
6:00 pm34 °FOvercast.8 mph87%29.79 "Hg12 mi
5:00 pm34 °FOvercast.8 mph87%29.78 "Hg15 mi
4:00 pm34 °FOvercast.10 mph87%29.78 "Hg15 mi
3:00 pm34 °FMostly cloudy.8 mph87%29.75 "Hg8 mi
2:14 pm36 °FMostly cloudy.8 mph87%29.74 "Hg12 mi
1:00 pm36 °FPartly sunny.8 mph87%29.74 "Hg15 mi
12:00 pm34 °FPartly sunny.13 mph87%29.75 "Hg15 mi
11:00 am34 °FLight snow. Fog.10 mph87%29.75 "Hg4 mi
10:00 am32 °FLight snow. Ice fog.12 mph93%29.73 "Hg6 mi
9:00 am32 °FPartly sunny.12 mph93%29.72 "Hg15 mi
Weather by CustomWeather, © 2017

See weather overviewHow to use our weather pages